Time,TemperatureF,DewpointF,PressureIn,WindDirection,WindDirectionDegrees,WindSpeedMPH,WindSpeedGustMPH,Humidity,HourlyPrecipIn,Conditions,Clouds,dailyrainin,SoftwareType,DateUTC
2013-07-04 00:33:00,71.0,-99.9,30.26,ENE,69,-999.0,-999.0,-999,0.00,,,-99.99,,2013-07-04 04:33:00,
2013-07-04 00:43:00,71.0,-99.9,30.26,ENE,69,-999.0,-999.0,-999,0.00,,,-99.99,,2013-07-04 04:43:00,
2013-07-04 00:52:00,71.0,-99.9,30.26,ENE,69,-999.0,-999.0,-999,0.00,,,-99.99,,2013-07-04 04:52:00,
2013-07-04 01:33:00,71.0,-99.9,30.26,ENE,69,-999.0,-999.0,-999,0.00,,,-99.99,,2013-07-04 05:33:00,
2013-07-04 01:43:00,71.0,-99.9,30.26,ENE,69,-999.0,-999.0,-999,0.00,,,-99.99,,2013-07-04 05:43:00,
2013-07-04 01:52:00,71.0,-99.9,30.26,ENE,69,-999.0,-999.0,-999,0.00,,,-99.99,,2013-07-04 05:52:00,
2013-07-04 01:53:00,70.0,-99.9,30.24,ENE,69,-999.0,-999.0,-999,0.00,,,-99.99,,2013-07-04 05:53:00,
2013-07-04 02:34:00,70.0,-99.9,30.24,ENE,69,-999.0,-999.0,-999,0.00,,,-99.99,,2013-07-04 06:34:00,
2013-07-04 02:43:00,70.0,-99.9,30.24,ENE,69,-999.0,-999.0,-999,0.00,,,-99.99,,2013-07-04 06:43:00,
2013-07-04 03:34:00,70.0,-99.9,30.25,ENE,69,-999.0,-999.0,-999,0.00,,,-99.99,,2013-07-04 07:34:00,
2013-07-04 03:43:00,70.0,-99.9,30.25,ENE,69,-999.0,-999.0,-999,0.00,,,-99.99,,2013-07-04 07:43:00,
2013-07-04 03:52:00,70.0,-99.9,30.25,ENE,69,-999.0,-999.0,-999,0.00,,,-99.99,,2013-07-04 07:52:00,
2013-07-04 03:53:00,69.0,-99.9,30.24,ENE,69,-999.0,-999.0,-999,0.00,,,-99.99,,2013-07-04 07:53:00,
2013-07-04 04:33:00,69.0,-99.9,30.24,ENE,69,-999.0,-999.0,-999,0.00,,,-99.99,,2013-07-04 08:33:00,
2013-07-04 04:43:00,69.0,-99.9,30.24,ENE,69,-999.0,-999.0,-999,0.00,,,-99.99,,2013-07-04 08:43:00,
2013-07-04 04:52:00,70.0,-99.9,30.25,ENE,69,-999.0,-999.0,-999,0.00,,,-99.99,,2013-07-04 08:52:00,
2013-07-04 05:33:00,70.0,-99.9,30.25,ENE,69,-999.0,-999.0,-999,0.00,,,-99.99,,2013-07-04 09:33:00,
2013-07-04 05:42:00,70.0,-99.9,30.25,ENE,69,-999.0,-999.0,-999,0.00,,,-99.99,,2013-07-04 09:42:00,
2013-07-04 05:53:00,69.0,-99.9,30.26,ENE,69,-999.0,-999.0,-999,0.00,,,-99.99,,2013-07-04 09:53:00,
2013-07-04 06:34:00,69.0,-99.9,30.26,ENE,69,-999.0,-999.0,-999,0.00,,,-99.99,,2013-07-04 10:34:00,
2013-07-04 06:43:00,69.0,-99.9,30.26,ENE,69,-999.0,-999.0,-999,0.00,,,-99.99,,2013-07-04 10:43:00,
2013-07-04 06:53:00,71.0,-99.9,30.27,ENE,69,-999.0,-999.0,-999,0.00,,,-99.99,,2013-07-04 10:53:00,
2013-07-04 07:34:00,71.0,-99.9,30.27,ENE,69,-999.0,-999.0,-999,0.00,,,-99.99,,2013-07-04 11:34:00,
2013-07-04 07:43:00,71.0,-99.9,30.27,ENE,69,-999.0,-999.0,-999,0.00,,,-99.99,,2013-07-04 11:43:00,
2013-07-04 08:33:00,71.0,-99.9,30.28,ENE,69,-999.0,-999.0,-999,0.00,,,-99.99,,2013-07-04 12:33:00,
2013-07-04 08:43:00,71.0,-99.9,30.28,ENE,69,-999.0,-999.0,-999,0.00,,,-99.99,,2013-07-04 12:43:00,
2013-07-04 08:52:00,71.0,-99.9,30.28,ENE,69,-999.0,-999.0,-999,0.00,,,-99.99,,2013-07-04 12:52:00,
2013-07-04 09:33:00,74.0,-99.9,30.28,ENE,69,-999.0,-999.0,-999,0.00,,,-99.99,,2013-07-04 13:33:00,
2013-07-04 09:43:00,74.0,-99.9,30.28,ENE,69,-999.0,-999.0,-999,0.00,,,-99.99,,2013-07-04 13:43:00,
2013-07-04 09:52:00,74.0,-99.9,30.28,ENE,69,-999.0,-999.0,-999,0.00,,,-99.99,,2013-07-04 13:52:00,
2013-07-04 10:33:00,74.0,-99.9,30.28,ENE,69,-999.0,-999.0,-999,0.00,,,-99.99,,2013-07-04 14:33:00,
2013-07-04 10:43:00,74.0,-99.9,30.28,ENE,69,-999.0,-999.0,-999,0.00,,,-99.99,,2013-07-04 14:43:00,
2013-07-04 11:43:00,76.0,-99.9,30.28,ENE,69,-999.0,-999.0,-999,0.00,,,-99.99,,2013-07-04 15:43:00,
2013-07-04 11:53:00,76.0,-99.9,30.28,ENE,69,-999.0,-999.0,-999,0.00,,,-99.99,,2013-07-04 15:53:00,
2013-07-04 12:33:00,76.0,-99.9,30.27,ENE,69,-999.0,-999.0,-999,0.00,,,-99.99,,2013-07-04 16:33:00,
2013-07-04 12:43:00,76.0,-99.9,30.27,ENE,69,-999.0,-999.0,-999,0.00,,,-99.99,,2013-07-04 16:43:00,
2013-07-04 12:52:00,76.0,-99.9,30.27,ENE,69,-999.0,-999.0,-999,0.00,,,-99.99,,2013-07-04 16:52:00,
2013-07-04 13:52:00,76.0,-99.9,30.26,ENE,69,-999.0,-999.0,-999,0.00,,,-99.99,,2013-07-04 17:52:00,
2013-07-04 14:33:00,76.0,-99.9,30.26,ENE,69,-999.0,-999.0,-999,0.00,,,-99.99,,2013-07-04 18:33:00,
2013-07-04 14:43:00,76.0,-99.9,30.26,ENE,69,-999.0,-999.0,-999,0.00,,,-99.99,,2013-07-04 18:43:00,
2013-07-04 15:53:00,77.0,-99.9,30.23,ENE,69,-999.0,-999.0,-999,0.00,,,-99.99,,2013-07-04 19:53:00,
2013-07-04 16:42:00,77.0,-99.9,30.23,ENE,69,-999.0,-999.0,-999,0.00,,,-99.99,,2013-07-04 20:42:00,
2013-07-04 17:52:00,75.0,-99.9,30.22,ENE,69,-999.0,-999.0,-999,0.00,,,-99.99,,2013-07-04 21:52:00,
2013-07-04 18:33:00,75.0,-99.9,30.22,ENE,69,-999.0,-999.0,-999,0.00,,,-99.99,,2013-07-04 22:33:00,
2013-07-04 18:43:00,75.0,-99.9,30.22,ENE,69,-999.0,-999.0,-999,0.00,,,-99.99,,2013-07-04 22:43:00,
2013-07-04 18:52:00,74.0,-99.9,30.22,ENE,69,-999.0,-999.0,-999,0.00,,,-99.99,,2013-07-04 22:52:00,
2013-07-04 19:33:00,74.0,-99.9,30.22,ENE,69,-999.0,-999.0,-999,0.00,,,-99.99,,2013-07-04 23:33:00,
2013-07-04 19:43:00,74.0,-99.9,30.22,ENE,69,-999.0,-999.0,-999,0.00,,,-99.99,,2013-07-04 23:43:00,
2013-07-04 20:32:00,74.0,-99.9,30.22,ENE,69,-999.0,-999.0,-999,0.00,,,-99.99,,2013-07-05 00:32:00,
2013-07-04 20:43:00,74.0,-99.9,30.22,ENE,69,-999.0,-999.0,-999,0.00,,,-99.99,,2013-07-05 00:43:00,
2013-07-04 20:52:00,74.0,-99.9,30.22,ENE,69,-999.0,-999.0,-999,0.00,,,-99.99,,2013-07-05 00:52:00,
2013-07-04 21:32:00,73.0,-99.9,30.23,ENE,69,-999.0,-999.0,-999,0.00,,,-99.99,,2013-07-05 01:32:00,
2013-07-04 21:42:00,73.0,-99.9,30.23,ENE,69,-999.0,-999.0,-999,0.00,,,-99.99,,2013-07-05 01:42:00,
2013-07-04 21:52:00,73.0,-99.9,30.23,ENE,69,-999.0,-999.0,-999,0.00,,,-99.99,,2013-07-05 01:52:00,
2013-07-04 21:53:00,72.0,-99.9,30.23,ENE,69,-999.0,-999.0,-999,0.00,,,-99.99,,2013-07-05 01:53:00,
2013-07-04 22:32:00,72.0,-99.9,30.23,ENE,69,-999.0,-999.0,-999,0.00,,,-99.99,,2013-07-05 02:32:00,
2013-07-04 22:43:00,72.0,-99.9,30.23,ENE,69,-999.0,-999.0,-999,0.00,,,-99.99,,2013-07-05 02:43:00,
2013-07-04 23:33:00,72.0,-99.9,30.24,ENE,69,-999.0,-999.0,-999,0.00,,,-99.99,,2013-07-05 03:33:00,
2013-07-04 23:42:00,72.0,-99.9,30.24,ENE,69,-999.0,-999.0,-999,0.00,,,-99.99,,2013-07-05 03:42:00,
2013-07-04 23:52:00,72.0,-99.9,30.24,ENE,69,-999.0,-999.0,-999,0.00,,,-99.99,,2013-07-05 03:52:00,
2013-07-04 23:53:00,71.0,-99.9,30.24,ENE,69,-999.0,-999.0,-999,0.00,,,-99.99,,2013-07-05 03:53:00,